Погода в Ачинске

Погода в Ачинске : погода сейчас, прогноз погоды и архив. Всё, что Вы хотите узнать о погоде в Ачинске!

Поиск расширенной информации на нашем сайте:

Другие новости

Новости СМИ2

Главная страница сайта

Новости сайта

02.10.2013

Напоминаем, что на нашем новом сайте вы можете получить высокодетализированные прогнозы погоды по пунктам России, СНГ и мира (включающие важные для авиации метеовеличины, такие как направление и скорость ветра, видимость, явления погоды, количество и форма облачности, нижняя и верхняя граница облачности), а также ознакомиться с разнообразными материалами по авиационной метеорологии и подборкой полезных ссылок на эту тему.

Сайт Метеоцентр.Азия посвящён разработке технологий оптимизации авиаметеорологического обслуживания, включая проектирование и перспективное создание нескольких автоматизированных авиаметеорологических систем:
- система выпуска высокодетальных прогностических карт явлений погоды для нижнего воздушного пространства по России и ближнему зарубежью;
- система верификации прогнозов TAF (выпускаемых синоптиками официальных АМСГ РФ и ближнего зарубежья) и AUTOTAF (выпускаемых сайтом Метеоцентр.Азия) - выявление ошибок, онлайн-сопоставление с фактической погодой METAR, автоматическое внесение коррективов в прогнозы при резком отклонении фактической погоды от прогноза, подсчёт оправдываемости прогнозов по элементам и в целом;
- система обработки, анализа и отображения авиаметеорологической информации для применения провайдерами метеорологической информации.


Погода в Ачинске - сегодня

Время (UTC), дата Ветер
(°,м/с) 
Видим.   Явления Облачность Т
(°С)
Тd
(°С)
f(%) Тe
(°С)
Pmin
(гПа)
dP
(гПа)
Po
(мм)
O2
(г/м3)
Тmin Tmax R s Состояние
почвы
09 26.03.17 210 (ЮЗ) 20000 м    9/6 600 м верхняя 
[Cu Sc|Ci fib]
+2.8 -4.9 57 +1  1025.2  0.2  745  298           
12 26.03.17 190 (Ю) 20000 м    9/0 верхняя 
[Cc]
+1.6 -5.3 60 +1  1024.7  -0.6  744  299    +3  0.0     
15 26.03.17 160 (Ю) 20000 м    9/0 верхняя 
[Ci fib]
-0.6 -5.5 69 -1  1023.5  -1.5  743  301           
18 26.03.17 140 (ЮВ) 20000 м    ясно 
-1.7 -5.9 73 -1  1022.6  -0.9  743  302           
21 26.03.17 070 (В) 20000 м    ясно 
-3.6 -6.9 78 -5  1020.4  -2.4  741  303           
00 27.03.17 070 (В) 20000 м    6/0 верхняя 
[Ci fib]
-4.2 -7.2 80 -4  1019  -1.4  740  303  -4.7      мокрый или
старый снег
50-90% 
03 27.03.17 080 (В) 20000 м    9/0 верхняя 
[Ci fib]
+2.7 -4 61 +3  1016.6  -1.6  739  295           
06 27.03.17 150 (ЮВ) 20000 м    10/0 верхняя 
[Cs]
+7.7 -3 47 +8  1014.9  -1  738  289           
09 27.03.17 190 (Ю) 20000 м    10/0 верхняя 
[Cs]
+8.4 -3.3 43 +8  1014.2  -0.7  737  289           
12 27.03.17 230 (ЮЗ) 20000 м    10/1 600 м верхняя 
[Sc|Cc]
+5.8 -3.7 50 +5  1015.9  1.4  738  292    +8.6       
15 27.03.17 240 (ЮЗ) 20000 м  {ливн. осадки}  10/10 600 м кучево-дожд. 
[Cb cap]
+3.1 -0.1 79 +2  1018.6  2.3  740  295           
18 27.03.17 220 (ЮЗ) 20000 м  {ливн. осадки}  9/9 600 м 
[Sc]
+2.7 -1.6 73 +1  1020.3  1.7  741  296           
21 27.03.17 230 (ЮЗ) 20000 м    9/9 600 м 
[Sc]
+2.4 -2.1 72 1021.7  1.3  742  297           
00 28.03.17 230 (ЮЗ) 5-10{10}  10 км  дым  10/10 600 м кучево-дожд. 
[Cb cap]
+1.7 -1.9 77 -1  1023.7  1.8  744  298  +1.7    0.0  <0.5  мокрый или
старый снег
50-90% 
03 28.03.17 230 (ЮЗ) 20000 м  {снег}  10/8 600 м средняя 
[Frnb|As op]
+1.2 -2.2 78 1025.4  1.6  745  299  +0.8         
06 28.03.17 230 (ЮЗ) 20000 м  {снег}  10/6 600 м средняя 
[Frnb|As op]
+2.5 -2.6 69 +1  1025.5  0.3  745  298           
09 28.03.17 200 (Ю) 20000 м    9/8 1000 м средняя 
[Sc|Ac trans]
+5 -2.9 57 +3  1024.3  -0.9  744  295           
12 28.03.17 180 (Ю) 20000 м    9/0 средняя, верхняя 
[Ac trans|Ci fib]
+4.4 -2.4 61 +4  1024.1  -0.3  744  295    +5.5  0.0     
15 28.03.17 150 (ЮВ) 20000 м    3/0 верхняя 
[Ci fib]
+2.8 -2.6 68 +2  1023.4  -0.8  744  297           
18 28.03.17 160 (Ю) 20000 м    1/0 средняя 
[Ac trans]
+2.7 -3 66 +2  1022  -1.4  743  297           
21 28.03.17 160 (Ю) 20000 м    4/3 600 м верхняя 
[Sc|Ci fib]
+1.5 -3 72 1021.5  -0.6  742  298           
00 29.03.17 160 (Ю) 20000 м    9/9 600 м верхняя 
[Sc|Ci fib]
+2 -2.5 72 +1  1021.1  -0.3  742  297  +1.1      <0.5  мокрый или
старый снег
50-90% 
03 29.03.17 170 (Ю) 20000 м    8/0 верхняя 
[Ci fib]
+5.4 -2.5 57 +4  1020.3  -0.4  742  293           
06 29.03.17 170 (Ю) 4{10}  20000 м    8/0 верхняя 
[Ci fib]
+9.9 -3.1 40 +9  1018.3  -1.5  740  288           
09 29.03.17 160 (Ю) 3{10}  20000 м    9/0 верхняя 
[Ci sp]
+10.2 -3.3 39 +10  1016.3  -1.9  739  287           
Время (UTC), дата Ветер
(°,м/с) 
Видим.   Явления Облачность Т
(°С)
Тd
(°С)
f(%) Тe
(°С)
Pmin
(гПа)
dP
(гПа)
Po
(мм)
O2
(г/м3)
Тmin Tmax R s Состояние
почвы

Для получения пояснительной информации подведите курсор к названию столбца.

ПОГОДА в Ачинске - архив

Всё, что Вы хотите узнать о погоде в Ачинске - удобно и подробно!

Выберите нужную дату (начиная с 1 января 2015* года) и нажмите кнопку "Найти".
Будут отображены архивные сводки погоды по пункту Ачинск, начиная с указанной даты.


Отображать данные в формате CSV (для использования в таблицах Excel)


Внимание! Наш архив погоды предназначен исключительно для личного некоммерческого использования в познавательных целях. Если Вам необходимы официальные справки о состоянии погоды (для производственных, юридических, коммерческих и т.п. целей), обращайтесь в органы Росгидромета.

*Примечание: данная дата относится к архиву по метеостанциям СССР (Россия, СНГ, Балтия).
Архив по метеостанциям Зарубежной Европы и Азии (кроме Китая) хранится 10 дней, по другим регионам земного шара (Китай, Африка, Америка, Австралия, Океания) - 1 день.

Ачинск - район местоположения метеостанции


Название, широта, долгота, высота метеостанции:
Ачинск 56.3°ш. 90.5°д. 272 м над ур. моря [Российская Федерация]

Дополнительная информация

В oтличие oт бoльшинства пoгoдных сайтoв мы публикуем пoдрoбную метеoинфoрмацию в детальнoм прoфессиoнальнoм фoрмате.

Характеристики температуры и влажнoсти вoздуха измеряются на высoте 2 м в тени вдали oт зданий и деревьев.
Скoрoсть ветра измеряется на высoте 10 м (на урoвне рoста челoвека скoрoсть ветра ниже в 1.5-2 раза). Если метеoстанция нахoдится в гoрoде или в лесу, тo скoрoсть ветра занижена на 2-4 м/с пo сравнению с oткрытым местoм. Скoрoсть ветра над акватoриями крупных рек и oзёр, а также на вершинах хoлмoв на 2-5 м/с выше, чем в oбычных услoвиях.
Атмoсфернoе давление в разных тoчках местнoсти мoжет значительнo oтличаться oт давления на метеoстанции, в зависимoсти oт услoвий рельефа (при пoдъёме на 10 м давление пoнижается примернo на 1 мм рт.ст.).